FW1036 Weather Reports


time (UTC)temp
C
wind
direction
speed
KPH
gust
KPH
rain 1hr
cm
rain 24hr
cm
rain mn
cm
humidity
%
barometer
mb
20260904043004 18 5 0.0 3.2 0.00 0.89 0.00 93 1014.0
20260904041505 18 5 0.0 1.6 0.00 0.89 0.00 93 1014.0
20260904040002 18 5 0.0 1.6 0.00 0.89 0.89 93 1013.9
20260904034600 18 5 0.0 0.0 0.00 0.89 0.89 93 1013.8
20260904034500 18 5 0.0 0.0 0.00 0.89 0.89 93 1013.7
20260904033102 18 5 0.0 0.0 0.00 0.89 0.89 93 1013.8
20260904031600 18 5 0.0 0.0 0.00 0.89 0.89 93 1013.6
20260904030059 18 5 0.0 0.0 0.00 0.89 0.89 93 1013.4
20260904024558 18 5 0.0 0.0 0.00 0.89 0.89 93 1013.4
20260904023057 18 5 0.0 0.0 0.00 0.89 0.89 93 1013.4
20260904021557 18 5 0.0 4.8 0.00 0.89 0.89 92 1013.4
20260904020056 19 10 3.2 6.4 0.00 0.89 0.89 92 1013.3
20260904014557 19 10 0.0 0.0 0.00 0.89 0.89 92 1013.2
20260904013106 19 10 0.0 1.6 0.00 0.89 0.89 93 1013.4
20260904011556 19 10 1.6 4.8 0.00 0.89 0.89 92 1013.2
20260904010053 19 5 4.8 6.4 0.00 0.89 0.89 92 1012.8
20260904004553 19 92 1.6 4.8 0.00 0.91 0.89 92 1012.5
20260904003051 19 65 1.6 6.4 0.00 0.91 0.89 92 1012.2
20260904001603 19 115 1.6 4.8 0.00 0.91 0.89 92 1012.1
20260904000051 19 115 0.0 4.8 0.00 0.91 0.89 92 1012.2
20260903234554 20 51 0.0 4.8 0.00 1.22 0.89 91 1012.1
20260903233052 20 51 1.6 6.4 0.00 1.22 0.89 91 1011.8
20260903231549 20 168 0.0 3.2 0.00 1.22 0.89 91 1011.5
20260903230049 20 168 3.2 6.4 0.00 1.22 0.89 91 1011.7
20260903224547 20 5 3.2 8.0 0.00 1.22 0.89 92 1012.2
20260903223052 19 12 6.4 14.5 0.00 1.22 0.89 92 1012.3
20260903221545 19 28 8.0 20.9 0.00 1.22 0.89 92 1011.9
20260903220059 20 26 17.7 20.9 0.00 1.22 0.89 92 1011.7
20260903214543 20 50 8.0 14.5 0.00 1.35 0.89 92 1010.6
20260903213047 20 144 6.4 12.9 0.03 1.35 0.89 92 1010.4
20260903211542 20 109 8.0 16.1 0.05 1.35 0.89 92 1010.9
20260903210049 20 106 4.8 11.3 0.08 1.35 0.89 92 1012.2
20260903204541 20 34 4.8 9.7 0.20 1.93 0.89 92 1013.3
20260903203040 20 360 6.4 11.3 0.28 1.91 0.86 92 1013.3
20260903201540 20 111 6.4 9.7 0.71 1.88 0.84 92 1012.6
20260903200039 20 355 0.0 1.6 0.76 1.85 0.81 91 1013.4
20260903194547 20 5 0.0 6.4 0.69 1.73 0.69 91 1013.5
20260903193045 20 23 3.2 17.7 0.58 1.63 0.58 89 1013.2
20260903191534 20 5 4.8 9.7 0.10 1.14 0.10 90 1013.3
20260903190033 21 38 8.0 22.5 0.05 1.09 0.05 89 1012.5
20260903184532 21 29 17.7 22.5 0.00 1.04 0.00 88 1012.0
20260903183032 22 44 9.7 16.1 0.00 1.04 0.00 87 1012.0
20260903181532 22 55 9.7 17.7 0.00 1.04 0.00 86 1011.6
20260903180029 23 96 8.0 17.7 0.00 1.04 0.00 85 1011.6
20260903174529 23 65 8.0 16.1 0.00 1.04 0.00 83 1012.0
20260903173028 24 84 3.2 12.9 0.00 1.04 0.00 82 1012.2
20260903171525 25 132 1.6 9.7 0.00 1.04 0.00 79 1012.3
20260903170028 25 117 6.4 12.9 0.00 1.04 0.00 79 1012.5
20260903164522 24 90 6.4 14.5 0.00 1.04 0.00 81 1012.5
20260903163021 25 138 8.0 11.3 0.00 1.04 0.00 78 1012.6
20260903161519 25 143 1.6 9.7 0.00 1.04 0.00 78 1012.9
20260903160019 24 132 4.8 11.3 0.00 1.04 0.00 76 1012.8
20260903154515 24 100 3.2 8.0 0.00 1.04 0.00 76 1012.7
20260903153010 24 114 3.2 14.5 0.00 1.04 0.00 75 1012.6
20260903151505 23 58 8.0 14.5 0.00 1.04 0.00 77 1012.3
20260903150004 23 45 6.4 12.9 0.00 1.04 0.00 80 1012.3
20260903144557 23 80 8.0 14.5 0.00 1.04 0.00 82 1012.0
20260903143102 22 45 8.0 14.5 0.00 1.04 0.00 89 1012.1
20260903141550 22 30 6.4 14.5 0.00 1.04 0.00 93 1012.0
20260903140046 21 74 6.4 16.1 0.00 1.04 0.00 94 1012.0
20260903134551 21 85 4.8 8.0 0.00 1.04 0.00 95 1012.1
20260903133043 20 92 3.2 9.7 0.00 1.04 0.00 95 1012.2
20260903131549 20 80 3.2 6.4 0.00 1.04 0.00 94 1012.3
20260903130041 20 55 1.6 4.8 0.00 1.04 0.00 95 1012.5
20260903124539 20 55 3.2 8.0 0.00 1.04 0.00 94 1012.4
20260903123037 19 23 4.8 6.4 0.00 1.04 0.00 94 1012.4
20260903121536 19 27 6.4 9.7 0.00 1.04 0.00 94 1012.4
20260903120036 18 32 3.2 4.8 0.00 1.04 0.00 94 1012.2
20260903114533 18 32 3.2 6.4 0.00 1.04 0.00 94 1012.1
20260903113030 18 32 3.2 4.8 0.00 1.04 0.00 94 1012.0
20260903111526 18 32 3.2 4.8 0.00 1.04 0.00 94 1011.8
20260903110024 18 32 1.6 4.8 0.00 1.04 0.00 94 1011.6
20260903104524 18 32 3.2 8.0 0.00 1.04 0.00 94 1011.5
20260903103023 18 33 6.4 9.7 0.00 1.04 0.00 94 1011.7
20260903101521 18 5 1.6 3.2 0.00 1.04 0.00 94 1011.5
20260903100019 18 5 1.6 4.8 0.00 1.04 0.00 94 1011.4
20260903094518 19 5 1.6 8.0 0.00 1.04 0.00 94 1011.3
20260903093025 20 360 6.4 9.7 0.00 1.04 0.00 94 1011.3
20260903091517 18 19 1.6 3.2 0.00 1.04 0.00 94 1011.1
20260903090015 18 19 1.6 4.8 0.00 1.04 0.00 94 1010.9
20260903084516 18 30 0.0 1.6 0.00 1.04 0.00 94 1010.9
20260903083012 19 30 1.6 4.8 0.00 1.04 0.00 93 1011.1
20260903081529 19 30 1.6 4.8 0.00 1.04 0.00 93 1011.0
20260903080009 20 323 0.0 1.6 0.00 1.04 0.00 94 1011.1
20260903074509 20 323 0.0 1.6 0.00 1.04 0.00 93 1011.0
20260903073009 20 14 0.0 3.2 0.00 1.04 0.00 93 1010.9
20260903071512 20 14 0.0 1.6 0.00 1.04 0.00 93 1010.8
20260903070006 20 14 0.0 1.6 0.00 1.04 0.00 93 1010.8
20260903064505 20 14 0.0 3.2 0.00 1.04 0.00 93 1010.8
20260903063004 20 14 0.0 0.0 0.00 1.04 0.00 93 1011.0
20260903061504 20 14 0.0 0.0 0.00 1.04 0.00 93 1011.3
20260903054558 20 256 0.0 0.0 0.00 1.04 0.00 93 1011.3
20260903053058 20 256 0.0 0.0 0.00 1.04 0.00 93 1011.3
20260903051555 20 256 0.0 0.0 0.00 1.04 0.00 93 1010.9
20260903050051 20 256 0.0 4.8 0.00 1.04 0.00 93 1010.7
20260903044553 20 236 0.0 0.0 0.00 1.04 0.00 93 1010.3